Home   Weather   Stockholm   Past weeks

Flag for Sweden Past Weather in Stockholm, Sweden — Yesterday and Last 2 Weeks

Now
36 °F

Fog.


Feels Like: 29 °F
Forecast: 33 / 38 °F
Wind: 8 mph from Southwest

Location: Stockholm Bromma Airport

Current Time: Jan 18, 2017 at 3:26:34 pm

Latest Report: Jan 18, 2017 at 2:50 pm


Visibility: 1 mi

Pressure: 30.27 "Hg

Humidity: 100%

Dew Point: 36 °F

Location of StockholmLocation

Past Weather in Stockholm — Graph

°F

Stockholm Temperature Yesterday

Maximum temperature yesterday: 32 °F (at 8:50 pm)
Minimum temperature yesterday: 19 °F (at 3:20 am)
Average temperature yesterday: 26 °F

High & Low Weather Summary for the Past Weeks

 TemperatureHumidityPressure
High37 °F (Jan 9, 6:20 pm)100% (Jan 3, 6:20 pm)30.69 "Hg (Jan 3, 6:20 pm)
Low-4 °F (Jan 6, 4:50 am)67% (Jan 4, 10:50 pm)28.77 "Hg (Jan 12, 12:50 am)
Average27 °F87%29.85 "Hg
* Reported Jan 3 1:20 pm — Jan 18 1:50 pm, Stockholm, Weather by CustomWeather, © 2017

Note: Actual official high and low records may vary slightly from our data, if they occured in-between our weather recording intervals... More about our weather records

Advertising

Stockholm Weather History for the Previous 24 Hours

Scroll right to see more
 ConditionsComfort  
Time TempWeatherWind HumidityBarometerVisibility
1:50 pm
Wed, Jan 18
36 °FFog.7 mph93%30.27 "Hg2 mi
1:20 pm36 °FFog.7 mph93%30.27 "Hg3 mi
12:50 pm36 °FFog.8 mph93%30.27 "Hg5 mi
12:20 pm36 °FFog.8 mph93%30.30 "Hg4 mi
11:50 am36 °FFog.8 mph93%30.30 "Hg6 mi
11:20 am34 °FFog.9 mph100%30.30 "Hg6 mi
10:50 am34 °FLow clouds.9 mph100%30.33 "HgN/A
10:20 am34 °FLow clouds.10 mph100%30.33 "HgN/A
9:50 am34 °FFog.9 mph100%30.33 "Hg6 mi
9:20 am34 °FFog.8 mph100%30.33 "Hg6 mi
8:50 am34 °FPartly sunny.7 mph93%30.33 "HgN/A
8:20 am34 °FLow clouds.8 mph93%30.33 "HgN/A
7:50 am34 °FPassing clouds.7 mph93%30.33 "HgN/A
7:20 am34 °FLow clouds.6 mph93%30.33 "HgN/A
6:50 am34 °FLow clouds.6 mph93%30.33 "HgN/A
6:20 am34 °FFog.5 mph93%30.33 "Hg5 mi
5:50 am34 °FFog.7 mph93%30.33 "Hg5 mi
5:20 am34 °FLow clouds.10 mph93%30.33 "HgN/A
4:50 am34 °FLow clouds.8 mph93%30.33 "Hg5 mi
4:20 am34 °FFog.8 mph93%30.33 "Hg2 mi
3:50 am34 °FFog.7 mph93%30.33 "Hg3 mi
3:20 am34 °FFog.6 mph93%30.36 "Hg4 mi
2:50 am34 °FLow clouds.6 mph93%30.36 "HgN/A
2:20 am32 °FLow clouds.6 mph100%30.36 "HgN/A
1:50 am32 °FLow clouds.6 mph93%30.36 "HgN/A
1:20 am32 °FLow clouds.6 mph93%30.36 "HgN/A
12:50 am32 °FLow clouds.7 mph93%30.36 "HgN/A
12:20 am32 °FLow clouds.6 mph93%30.36 "HgN/A
11:50 pm
Tue, Jan 17
32 °FLow clouds.6 mph87%30.36 "HgN/A
11:20 pm32 °FLow clouds.6 mph87%30.36 "HgN/A
10:50 pm32 °FLow clouds.6 mph87%30.36 "HgN/A
10:20 pm32 °FLow clouds.6 mph87%30.39 "HgN/A
9:50 pm32 °FPassing clouds.7 mph87%30.39 "HgN/A
9:20 pm32 °FPartly cloudy.7 mph80%30.39 "HgN/A
8:50 pm32 °FPassing clouds.7 mph80%30.39 "HgN/A
8:20 pm30 °FPassing clouds.7 mph86%30.39 "HgN/A
7:50 pm30 °FPartly cloudy.8 mph86%30.39 "HgN/A
7:20 pm30 °FPartly cloudy.8 mph86%30.39 "HgN/A
6:50 pm30 °FPartly cloudy.9 mph80%30.39 "HgN/A
6:20 pm30 °FPartly cloudy.7 mph80%30.39 "HgN/A
5:50 pm30 °FPartly cloudy.8 mph80%30.39 "HgN/A
5:20 pm30 °FPartly cloudy.9 mph80%30.42 "HgN/A
4:50 pm30 °FPartly cloudy.8 mph75%30.42 "HgN/A
4:20 pm30 °FPartly cloudy.7 mph75%30.42 "HgN/A
3:50 pm28 °FPartly cloudy.8 mph80%30.42 "HgN/A
3:20 pm28 °FBroken clouds.9 mph80%30.42 "HgN/A
Weather by CustomWeather, © 2017

See weather overviewHow to use our weather pages